Location: Les Moreaux
(47.2278°N, 1.4966°E)
Time: 15:35:18
(UTC+00:00)

Landsat 5 - Pass Details

Date: 19 May 2025
Orbit: 510 x 610 km, 98.1° (Epoch: 17 June)

Event Time Altitude Azimuth Distance (km) Brightness Sun altitude
Rises 23:29:01 0° 8° (N) 2,814 8.3 -22.6°
Reaches altitude 10° 23:31:13 10° 2° (N) 1,924 7.2 -22.6°
Maximum altitude 23:35:13 46° 290° (WNW) 807 4.2 -22.7°
Enters shadow 23:36:03 40° 255° (WSW) 888 4.2 -22.7°
